When you browse on this site, cookies collect data to enhance your experience and personalize the content and advertising you see.
Visit our Privacy Policy to learn more. By continuing to use the site, you agree to this use of cookies and data.
  • In Österreich
  • Länderverzeichnis
  • Für 7 Tage
  • Wassertemperatur
  • Wetterkarte
  • News
  • Widgets
  • user-avatar
    Anmelden

    Stündliche Wetter Lahva

    Heute, 14 Oktober, Montag

    Zeit Temperatur Niederschläge Wind Luftdruck Luftfeuchtigkeit
    00:00 +13°C° 0 mm 2 m/S 753 mmHg 86%
    01:00 +13°C° 0 mm 2 m/S 753 mmHg 87%
    02:00 +13°C° 0 mm 2 m/S 753 mmHg 89%
    03:00 +12°C° 0 mm 2 m/S 753 mmHg 90%
    04:00 +12°C° 0 mm 2 m/S 752 mmHg 91%
    05:00 +11°C° 0 mm 3 m/S 752 mmHg 91%
    06:00 +11°C° 0 mm 3 m/S 752 mmHg 89%
    07:00 +12°C° 0 mm 3 m/S 752 mmHg 87%
    08:00 +12°C° 0 mm 4 m/S 752 mmHg 82%
    09:00 +14°C° 0 mm 4 m/S 752 mmHg 75%
    10:00 +17°C° 0 mm 4 m/S 752 mmHg 69%
    11:00 +18°C° 0 mm 4 m/S 752 mmHg 62%
    12:00 +19°C° 0 mm 5 m/S 752 mmHg 59%
    13:00 +20°C° 0 mm 5 m/S 751 mmHg 56%
    14:00 +22°C° 0 mm 5 m/S 751 mmHg 54%
    15:00 +21°C° 0 mm 4 m/S 751 mmHg 59%
    16:00 +19°C° 0 mm 4 m/S 751 mmHg 64%
    17:00 +18°C° 0 mm 4 m/S 750 mmHg 69%
    18:00 +17°C° 0 mm 3 m/S 751 mmHg 72%
    19:00 +16°C° 0 mm 3 m/S 751 mmHg 76%
    20:00 +14°C° 0 mm 3 m/S 751 mmHg 79%
    21:00 +14°C° 0 mm 3 m/S 751 mmHg 81%
    22:00 +14°C° 0 mm 2 m/S 751 mmHg 84%
    23:00 +14°C° 0 mm 2 m/S 751 mmHg 86%

    Morgen, 15 Oktober, Dienstag

    Zeit Temperatur Niederschläge Wind Luftdruck Luftfeuchtigkeit
    00:00 +14°C° 0 mm 2 m/S 752 mmHg 87%
    01:00 +14°C° 0 mm 2 m/S 752 mmHg 89%
    02:00 +13°C° 0 mm 2 m/S 752 mmHg 90%
    03:00 +13°C° 0 mm 1 m/S 752 mmHg 90%
    04:00 +13°C° 0 mm 1 m/S 752 mmHg 91%
    05:00 +13°C° 0 mm 1 m/S 752 mmHg 91%
    06:00 +13°C° 0 mm 1 m/S 753 mmHg 90%
    07:00 +13°C° 0 mm 1 m/S 753 mmHg 89%
    08:00 +14°C° 0 mm 1 m/S 753 mmHg 89%
    09:00 +16°C° 0 mm 1 m/S 753 mmHg 82%
    10:00 +17°C° 0 mm 2 m/S 753 mmHg 76%
    11:00 +19°C° 0 mm 2 m/S 753 mmHg 69%
    12:00 +20°C° 0 mm 2 m/S 753 mmHg 66%
    13:00 +21°C° 0 mm 2 m/S 752 mmHg 63%
    14:00 +22°C° 0 mm 3 m/S 752 mmHg 61%
    15:00 +20°C° 0 mm 3 m/S 752 mmHg 66%
    16:00 +19°C° 0 mm 3 m/S 752 mmHg 71%
    17:00 +18°C° 0 mm 3 m/S 751 mmHg 76%
    18:00 +17°C° 0 mm 3 m/S 751 mmHg 78%
    19:00 +17°C° 0 mm 3 m/S 752 mmHg 80%
    20:00 +16°C° 0 mm 3 m/S 752 mmHg 82%
    21:00 +16°C° 0 mm 3 m/S 752 mmHg 80%
    22:00 +15°C° 0 mm 4 m/S 751 mmHg 79%
    23:00 +14°C° 0 mm 4 m/S 751 mmHg 77%

    übermorgen, 16 Oktober, Mittwoch

    Zeit Temperatur Niederschläge Wind Luftdruck Luftfeuchtigkeit
    00:00 +14°C° 0 mm 4 m/S 751 mmHg 76%
    01:00 +13°C° 0 mm 4 m/S 751 mmHg 76%
    02:00 +13°C° 0 mm 4 m/S 752 mmHg 75%
    03:00 +12°C° 0 mm 4 m/S 751 mmHg 76%
    04:00 +12°C° 0 mm 4 m/S 751 mmHg 76%
    05:00 +12°C° 0 mm 4 m/S 750 mmHg 77%
    06:00 +12°C° 0 mm 4 m/S 750 mmHg 76%
    07:00 +12°C° 0 mm 4 m/S 750 mmHg 74%
    08:00 +13°C° 0 mm 5 m/S 750 mmHg 73%
    09:00 +14°C° 0 mm 5 m/S 750 mmHg 67%
    10:00 +16°C° 0 mm 5 m/S 750 mmHg 61%
    11:00 +19°C° 0 mm 6 m/S 750 mmHg 55%
    12:00 +20°C° 0 mm 5 m/S 750 mmHg 54%
    13:00 +20°C° 0 mm 5 m/S 749 mmHg 53%
    14:00 +21°C° 0 mm 5 m/S 749 mmHg 52%
    15:00 +20°C° 0 mm 4 m/S 749 mmHg 58%
    16:00 +19°C° 0 mm 4 m/S 749 mmHg 63%
    17:00 +18°C° 0 mm 3 m/S 749 mmHg 69%
    18:00 +17°C° 0 mm 3 m/S 749 mmHg 72%
    19:00 +16°C° 0 mm 3 m/S 749 mmHg 76%
    20:00 +15°C° 0 mm 2 m/S 750 mmHg 80%
    21:00 +15°C° 0 mm 2 m/S 750 mmHg 83%
    22:00 +15°C° 0 mm 2 m/S 750 mmHg 86%
    23:00 +14°C° 0 mm 2 m/S 750 mmHg 89%

    17 Oktober, Donnerstag

    Zeit Temperatur Niederschläge Wind Luftdruck Luftfeuchtigkeit
    00:00 +14°C° 0 mm 2 m/S 750 mmHg 89%
    01:00 +14°C° 0 mm 2 m/S 751 mmHg 88%
    02:00 +15°C° 0 mm 2 m/S 751 mmHg 88%
    03:00 +14°C° 0 mm 2 m/S 751 mmHg 86%
    04:00 +14°C° 0 mm 2 m/S 751 mmHg 85%
    05:00 +14°C° 0 mm 1 m/S 751 mmHg 83%
    06:00 +14°C° 0 mm 2 m/S 751 mmHg 82%
    07:00 +14°C° 0 mm 2 m/S 751 mmHg 81%
    08:00 +14°C° 0 mm 2 m/S 751 mmHg 80%
    09:00 +14°C° 0 mm 3 m/S 751 mmHg 73%
    10:00 +17°C° 0 mm 3 m/S 751 mmHg 65%
    11:00 +18°C° 0 mm 4 m/S 751 mmHg 58%
    12:00 +17°C° 0 mm 5 m/S 751 mmHg 54%
    13:00 +19°C° 0 mm 5 m/S 751 mmHg 50%
    14:00 +19°C° 0 mm 5 m/S 751 mmHg 47%
    15:00 +18°C° 0 mm 4 m/S 751 mmHg 53%
    16:00 +17°C° 0 mm 4 m/S 750 mmHg 59%
    17:00 +14°C° 0 mm 3 m/S 750 mmHg 66%
    18:00 +14°C° 0 mm 3 m/S 751 mmHg 69%
    19:00 +13°C° 0 mm 3 m/S 751 mmHg 72%
    20:00 +12°C° 0 mm 3 m/S 751 mmHg 76%
    21:00 +12°C° 0 mm 3 m/S 752 mmHg 79%
    22:00 +12°C° 0 mm 2 m/S 752 mmHg 82%
    23:00 +12°C° 0 mm 2 m/S 752 mmHg 85%

    18 Oktober, Freitag

    Zeit Temperatur Niederschläge Wind Luftdruck Luftfeuchtigkeit
    00:00 +12°C° 0 mm 2 m/S 752 mmHg 87%
    01:00 +10°C° 0 mm 2 m/S 752 mmHg 89%
    02:00 +10°C° 0 mm 2 m/S 753 mmHg 91%
    03:00 +10°C° 0 mm 2 m/S 753 mmHg 92%
    04:00 +11°C° 0 mm 1 m/S 753 mmHg 93%
    05:00 +10°C° 0 mm 1 m/S 753 mmHg 94%
    06:00 +11°C° 0 mm 1 m/S 753 mmHg 92%
    07:00 +11°C° 0 mm 1 m/S 753 mmHg 91%
    08:00 +11°C° 0 mm 1 m/S 754 mmHg 90%
    09:00 +13°C° 0 mm 1 m/S 754 mmHg 83%
    10:00 +15°C° 0 mm 1 m/S 754 mmHg 76%
    11:00 +16°C° 0 mm 1 m/S 754 mmHg 69%
    12:00 +18°C° 0 mm 1 m/S 754 mmHg 67%
    13:00 +18°C° 0 mm 1 m/S 754 mmHg 64%
    14:00 +19°C° 0 mm 1 m/S 754 mmHg 62%
    15:00 +18°C° 0 mm 1 m/S 754 mmHg 67%
    16:00 +15°C° 0 mm 0 m/S 754 mmHg 71%
    17:00 +14°C° 0 mm 0 m/S 753 mmHg 76%
    18:00 +14°C° 0 mm 1 m/S 754 mmHg 79%
    19:00 +13°C° 0 mm 1 m/S 754 mmHg 82%
    20:00 +13°C° 0 mm 1 m/S 754 mmHg 84%
    21:00 +13°C° 0 mm 2 m/S 754 mmHg 86%
    22:00 +12°C° 0 mm 2 m/S 754 mmHg 87%
    23:00 +12°C° 0 mm 2 m/S 755 mmHg 88%

    19 Oktober, Samstag

    Zeit Temperatur Niederschläge Wind Luftdruck Luftfeuchtigkeit
    00:00 +12°C° 0 mm 2 m/S 755 mmHg 89%
    01:00 +12°C° 0 mm 2 m/S 755 mmHg 89%
    02:00 +12°C° 0 mm 2 m/S 755 mmHg 90%
    03:00 +12°C° 0 mm 2 m/S 755 mmHg 90%
    04:00 +10°C° 0 mm 2 m/S 755 mmHg 91%
    05:00 +10°C° 0 mm 2 m/S 755 mmHg 91%
    06:00 +10°C° 0 mm 2 m/S 755 mmHg 90%
    07:00 +12°C° 0 mm 2 m/S 755 mmHg 90%
    08:00 +12°C° 0 mm 2 m/S 755 mmHg 89%
    09:00 +12°C° 0 mm 3 m/S 755 mmHg 82%
    10:00 +14°C° 0 mm 3 m/S 755 mmHg 76%
    11:00 +17°C° 0 mm 3 m/S 755 mmHg 69%
    12:00 +17°C° 0 mm 3 m/S 755 mmHg 66%
    13:00 +18°C° 0 mm 4 m/S 755 mmHg 63%
    14:00 +19°C° 0 mm 4 m/S 755 mmHg 60%
    15:00 +18°C° 0 mm 4 m/S 755 mmHg 64%
    16:00 +17°C° 0 mm 3 m/S 755 mmHg 69%
    17:00 +16°C° 0 mm 3 m/S 754 mmHg 74%
    18:00 +14°C° 0 mm 3 m/S 755 mmHg 75%
    19:00 +13°C° 0 mm 4 m/S 755 mmHg 76%
    20:00 +13°C° 0 mm 4 m/S 755 mmHg 78%
    21:00 +13°C° 0 mm 4 m/S 755 mmHg 77%
    22:00 +12°C° 0 mm 4 m/S 755 mmHg 77%
    23:00 +12°C° 0 mm 4 m/S 755 mmHg 77%
    Mehr zeigen